Simultaneous Nadir Overpasses (SNOs) Predictions

Prediction of SNOs between AQUA and NPP Satellite Orbit:

Table of predicted SNOs for the next 14.0 days since TLE Epoch: 10/26/2018
Index Date (AQUA) Time (AQUA) Lat,Lon (AQUA) SZA (AQUA ) Date (NPP) Time (NPP) Lat,Lon (NPP) SZA (NPP ) Distance(km) Time Diff (sec)
1 10/29/2018 05:32:31 -75.24, 153.74 69.78 10/29/2018 05:31:32 -75.25, 153.82 69.74 2.43 59
2 10/29/2018 06:21:33 76.36, -35.26 109.05 10/29/2018 06:21:52 76.37, -35.20 109.02 1.78 19
3 10/31/2018 21:48:51 -75.60, -89.39 69.31 10/31/2018 21:48:18 -75.60, -89.33 69.29 1.71 33
4 10/31/2018 22:37:54 76.66, 81.61 109.58 10/31/2018 22:38:39 76.66, 81.66 109.52 1.45 45
5 11/03/2018 14:05:11 -75.99, 27.67 68.90 11/03/2018 14:05:04 -76.00, 27.72 68.91 1.47 7
6 11/03/2018 14:54:15 76.99,-161.33 110.04 11/03/2018 14:55:26 76.99,-161.27 109.96 1.50 71
7 11/06/2018 05:32:26 75.23, -26.28 112.69 11/06/2018 05:31:29 75.23, -26.24 112.73 1.16 57
8 11/06/2018 06:21:31 -76.38, 144.78 68.51 11/06/2018 06:21:50 -76.38, 144.84 68.55 1.73 19
9 11/08/2018 21:48:45 75.67, 90.83 113.01 11/08/2018 21:48:14 75.67, 90.88 113.02 1.38 31




NCC Satellite Simultaneous Nadir Overpasses (SNOs) Prediction Service
